Year,Month,Day,Hour,Minute,Value (Times are PST for barometer in hPa)
2021,12,25,00,00,994.72
2021,12,25,00,01,994.75
2021,12,25,00,02,995.23
2021,12,25,00,03,995.26
2021,12,25,00,04,995.26
2021,12,25,00,05,995.26
2021,12,25,00,06,995.29
2021,12,25,00,07,995.29
2021,12,25,00,08,995.33
2021,12,25,00,09,995.29
2021,12,25,00,10,995.29
2021,12,25,00,11,995.33
2021,12,25,00,12,994.89
2021,12,25,00,13,994.89
2021,12,25,00,14,994.89
2021,12,25,00,15,994.89
2021,12,25,00,16,994.85
2021,12,25,00,17,994.85
2021,12,25,00,18,994.89
2021,12,25,00,19,994.89
2021,12,25,00,20,994.89
2021,12,25,00,21,994.85
2021,12,25,00,22,994.89
2021,12,25,00,23,994.89
2021,12,25,00,24,994.92
2021,12,25,00,25,994.92
2021,12,25,00,26,994.92
2021,12,25,00,27,994.89
2021,12,25,00,28,994.99
2021,12,25,00,29,994.96
2021,12,25,00,30,994.82
2021,12,25,00,31,995.43
2021,12,25,00,32,995.46
2021,12,25,00,33,995.46
2021,12,25,00,34,995.50
2021,12,25,00,35,995.50
2021,12,25,00,36,995.53
2021,12,25,00,37,995.50
2021,12,25,00,38,995.53
2021,12,25,00,39,995.53
2021,12,25,00,40,995.06
2021,12,25,00,41,995.09
2021,12,25,00,42,995.09
2021,12,25,00,43,995.09
2021,12,25,00,44,995.12
2021,12,25,00,45,995.09
2021,12,25,00,46,995.06
2021,12,25,00,47,995.06
2021,12,25,00,48,995.06
2021,12,25,00,49,995.02
2021,12,25,00,50,995.06
2021,12,25,00,51,995.02
2021,12,25,00,52,995.02
2021,12,25,00,53,995.06
2021,12,25,00,54,995.06
2021,12,25,00,55,995.06
2021,12,25,00,56,995.09
2021,12,25,00,57,995.09
2021,12,25,00,58,995.60
2021,12,25,00,59,995.56
2021,12,25,01,00,995.60
2021,12,25,01,01,995.56
2021,12,25,01,02,995.63
2021,12,25,01,03,995.63
2021,12,25,01,04,995.67
2021,12,25,01,05,995.63
2021,12,25,01,06,995.60
2021,12,25,01,07,995.60
2021,12,25,01,08,995.09
2021,12,25,01,09,995.06
2021,12,25,01,10,995.06
2021,12,25,01,11,995.02
2021,12,25,01,12,994.99
2021,12,25,01,13,994.99
2021,12,25,01,14,994.92
2021,12,25,01,15,994.89
2021,12,25,01,16,994.89
2021,12,25,01,17,994.85
2021,12,25,01,18,994.85
2021,12,25,01,19,994.85
2021,12,25,01,20,994.82
2021,12,25,01,21,994.82
2021,12,25,01,22,994.85
2021,12,25,01,23,994.85
2021,12,25,01,24,994.85
2021,12,25,01,25,994.89
2021,12,25,01,26,995.40
2021,12,25,01,27,995.43
2021,12,25,01,28,995.43
2021,12,25,01,29,995.46
2021,12,25,01,30,995.46
2021,12,25,01,31,995.50
2021,12,25,01,32,995.53
2021,12,25,01,33,995.56
2021,12,25,01,34,995.50
2021,12,25,01,35,995.56
2021,12,25,01,36,995.02
2021,12,25,01,37,995.06
2021,12,25,01,38,995.12
2021,12,25,01,39,995.16
2021,12,25,01,40,995.19
2021,12,25,01,41,995.16
2021,12,25,01,42,995.19
2021,12,25,01,43,995.16
2021,12,25,01,44,995.16
2021,12,25,01,45,995.19
2021,12,25,01,46,995.23
2021,12,25,01,47,995.19
2021,12,25,01,48,995.16
2021,12,25,01,49,995.09
2021,12,25,01,50,995.16
2021,12,25,01,51,995.16
2021,12,25,01,52,995.19
2021,12,25,01,53,995.19
2021,12,25,01,54,995.67
2021,12,25,01,55,995.63
2021,12,25,01,56,995.67
2021,12,25,01,57,995.60
2021,12,25,01,58,995.60
2021,12,25,01,59,995.56
2021,12,25,02,00,995.56
2021,12,25,02,01,995.60
2021,12,25,02,02,995.56
2021,12,25,02,03,995.60
2021,12,25,02,04,995.12
2021,12,25,02,05,995.09
2021,12,25,02,06,995.12
2021,12,25,02,07,995.16
2021,12,25,02,08,995.12
2021,12,25,02,09,995.16
2021,12,25,02,10,995.12
2021,12,25,02,11,995.16
2021,12,25,02,12,995.12
2021,12,25,02,13,995.16
2021,12,25,02,14,995.16
2021,12,25,02,15,995.12
2021,12,25,02,16,995.19
2021,12,25,02,17,995.19
2021,12,25,02,18,995.19
2021,12,25,02,19,995.16
2021,12,25,02,20,995.16
2021,12,25,02,21,995.63
2021,12,25,02,22,995.63
2021,12,25,02,23,995.67
2021,12,25,02,24,995.63
2021,12,25,02,25,995.63
2021,12,25,02,26,995.63
2021,12,25,02,27,995.63
2021,12,25,02,28,995.60
2021,12,25,02,29,995.60
2021,12,25,02,30,995.60
2021,12,25,02,31,995.16
2021,12,25,02,32,995.16
2021,12,25,02,33,995.12
2021,12,25,02,34,995.16
2021,12,25,02,35,995.16
2021,12,25,02,36,995.16
2021,12,25,02,37,995.19
2021,12,25,02,38,995.26
2021,12,25,02,39,995.23
2021,12,25,02,40,995.23
2021,12,25,02,41,995.23
2021,12,25,02,42,995.23
2021,12,25,02,43,995.23
2021,12,25,02,44,995.23
2021,12,25,02,45,995.26
2021,12,25,02,46,995.23
2021,12,25,02,47,995.70
2021,12,25,02,48,995.73
2021,12,25,02,49,995.73
2021,12,25,02,50,995.80
2021,12,25,02,51,995.80
2021,12,25,02,52,995.80
2021,12,25,02,53,995.80
2021,12,25,02,54,995.87
2021,12,25,02,55,995.84
2021,12,25,02,56,995.87
2021,12,25,02,57,995.33
2021,12,25,02,58,995.29
2021,12,25,02,59,995.33
2021,12,25,03,00,995.29
2021,12,25,03,01,995.26
2021,12,25,03,02,995.29
2021,12,25,03,03,995.29
2021,12,25,03,04,995.19
2021,12,25,03,05,995.23
2021,12,25,03,06,995.26
2021,12,25,03,07,995.26
2021,12,25,03,08,995.26
2021,12,25,03,09,995.26
2021,12,25,03,10,995.26
2021,12,25,03,11,995.26
2021,12,25,03,12,995.26
2021,12,25,03,13,995.19
2021,12,25,03,14,995.70
2021,12,25,03,15,995.67
2021,12,25,03,16,995.70
2021,12,25,03,17,995.67
2021,12,25,03,18,995.67
2021,12,25,03,19,995.70
2021,12,25,03,20,995.67
2021,12,25,03,21,995.67
2021,12,25,03,22,995.63
2021,12,25,03,23,995.70
2021,12,25,03,24,995.19
2021,12,25,03,25,995.26
2021,12,25,03,26,995.29
2021,12,25,03,27,995.29
2021,12,25,03,28,995.33
2021,12,25,03,29,995.29
2021,12,25,03,30,995.29
2021,12,25,03,31,995.26
2021,12,25,03,32,995.19
2021,12,25,03,33,995.16
2021,12,25,03,34,995.16
2021,12,25,03,35,995.06
2021,12,25,03,36,995.09
2021,12,25,03,37,995.09
2021,12,25,03,38,995.06
2021,12,25,03,39,995.16
2021,12,25,03,40,995.09
2021,12,25,03,41,995.67
2021,12,25,03,42,995.67
2021,12,25,03,43,995.60
2021,12,25,03,44,995.56
2021,12,25,03,45,995.60
2021,12,25,03,46,995.53
2021,12,25,03,47,995.56
2021,12,25,03,48,995.53
2021,12,25,03,49,995.50
2021,12,25,03,50,995.50
2021,12,25,03,51,995.02
2021,12,25,03,52,995.06
2021,12,25,03,53,995.06
2021,12,25,03,54,995.02
2021,12,25,03,55,995.02
2021,12,25,03,56,994.99
2021,12,25,03,57,995.02
2021,12,25,03,58,994.99
2021,12,25,03,59,995.06
2021,12,25,04,00,995.06
2021,12,25,04,01,995.02
2021,12,25,04,02,995.06
2021,12,25,04,03,995.06
2021,12,25,04,04,995.02
2021,12,25,04,05,995.02
2021,12,25,04,06,995.06
2021,12,25,04,07,994.99
2021,12,25,04,08,995.46
2021,12,25,04,09,995.43
2021,12,25,04,10,995.46
2021,12,25,04,11,995.43
2021,12,25,04,12,995.43
2021,12,25,04,13,995.40
2021,12,25,04,14,995.36
2021,12,25,04,15,995.40
2021,12,25,04,16,995.40
2021,12,25,04,17,995.36
2021,12,25,04,18,994.82
2021,12,25,04,19,994.89
2021,12,25,04,20,994.89
2021,12,25,04,21,994.89
2021,12,25,04,22,994.85
2021,12,25,04,23,994.85
2021,12,25,04,24,994.89
2021,12,25,04,25,994.89
2021,12,25,04,26,994.89
2021,12,25,04,27,994.85
2021,12,25,04,28,994.85
2021,12,25,04,29,994.82
2021,12,25,04,30,994.75
2021,12,25,04,31,994.68
2021,12,25,04,32,994.68
2021,12,25,04,33,994.65
2021,12,25,04,34,994.65
2021,12,25,04,35,995.16
2021,12,25,04,36,995.16
2021,12,25,04,37,995.19
2021,12,25,04,38,995.23
2021,12,25,04,39,995.26
2021,12,25,04,40,995.26
2021,12,25,04,41,995.29
2021,12,25,04,42,995.29
2021,12,25,04,43,995.26
2021,12,25,04,44,995.26
2021,12,25,04,45,995.26
2021,12,25,04,46,994.72
2021,12,25,04,47,994.72
2021,12,25,04,48,994.68
2021,12,25,04,49,994.75
2021,12,25,04,50,994.82
2021,12,25,04,51,994.82
2021,12,25,04,52,994.89
2021,12,25,04,53,994.79
2021,12,25,04,54,994.75
2021,12,25,04,55,994.65
2021,12,25,04,56,994.62
2021,12,25,04,57,994.62
2021,12,25,04,58,994.62
2021,12,25,04,59,994.72
2021,12,25,05,00,994.79
2021,12,25,05,01,994.82
2021,12,25,05,02,995.26
2021,12,25,05,03,995.26
2021,12,25,05,04,995.16
2021,12,25,05,05,995.16
2021,12,25,05,06,995.16
2021,12,25,05,07,995.19
2021,12,25,05,08,995.29
2021,12,25,05,09,995.40
2021,12,25,05,10,995.50
2021,12,25,05,11,995.46
2021,12,25,05,12,995.46
2021,12,25,05,13,994.92
2021,12,25,05,14,994.96
2021,12,25,05,15,995.06
2021,12,25,05,16,995.06
2021,12,25,05,17,995.02
2021,12,25,05,18,994.99
2021,12,25,05,19,994.96
2021,12,25,05,20,994.96
2021,12,25,05,21,995.02
2021,12,25,05,22,995.12
2021,12,25,05,23,995.09
2021,12,25,05,24,995.09
2021,12,25,05,25,995.06
2021,12,25,05,26,994.99
2021,12,25,05,27,995.06
2021,12,25,05,28,995.02
2021,12,25,05,29,995.58
2021,12,25,05,30,995.63
2021,12,25,05,31,995.63
2021,12,25,05,32,995.63
2021,12,25,05,33,995.60
2021,12,25,05,34,995.56
2021,12,25,05,35,995.53
2021,12,25,05,36,995.53
2021,12,25,05,37,995.50
2021,12,25,05,38,995.46
2021,12,25,05,39,994.94
2021,12,25,05,40,994.92
2021,12,25,05,41,994.89
2021,12,25,05,42,994.89
2021,12,25,05,43,994.82
2021,12,25,05,44,994.75
2021,12,25,05,45,994.72
2021,12,25,05,46,994.72
2021,12,25,05,47,994.72
2021,12,25,05,48,994.79
2021,12,25,05,49,994.79
2021,12,25,05,50,994.85
2021,12,25,05,51,994.85
2021,12,25,05,52,994.85
2021,12,25,05,53,994.85
2021,12,25,05,54,994.82
2021,12,25,05,55,995.33
2021,12,25,05,56,995.36
2021,12,25,05,57,995.33
2021,12,25,05,58,995.36
2021,12,25,05,59,995.40
2021,12,25,06,00,995.43
2021,12,25,06,01,995.46
2021,12,25,06,02,995.53
2021,12,25,06,03,995.50
2021,12,25,06,04,995.50
2021,12,25,06,05,995.46
2021,12,25,06,06,994.99
2021,12,25,06,07,994.92
2021,12,25,06,08,994.96
2021,12,25,06,09,994.85
2021,12,25,06,10,994.89
2021,12,25,06,11,994.89
2021,12,25,06,12,994.92
2021,12,25,06,13,994.92
2021,12,25,06,14,994.92
2021,12,25,06,15,994.85
2021,12,25,06,16,994.85
2021,12,25,06,17,994.85
2021,12,25,06,18,994.85
2021,12,25,06,19,994.89
2021,12,25,06,20,994.89
2021,12,25,06,21,994.89
2021,12,25,06,22,994.85
2021,12,25,06,23,995.33
2021,12,25,06,24,995.36
2021,12,25,06,25,995.36
2021,12,25,06,26,995.36
2021,12,25,06,27,995.36
2021,12,25,06,28,995.40
2021,12,25,06,29,995.40
2021,12,25,06,30,995.36
2021,12,25,06,31,995.40
2021,12,25,06,32,995.29
2021,12,25,06,33,994.85
2021,12,25,06,34,994.85
2021,12,25,06,35,994.79
2021,12,25,06,36,994.79
2021,12,25,06,37,994.72
2021,12,25,06,38,994.75
2021,12,25,06,39,994.72
2021,12,25,06,40,994.75
2021,12,25,06,41,994.72
2021,12,25,06,42,994.72
2021,12,25,06,43,994.68
2021,12,25,06,44,994.72
2021,12,25,06,45,994.68
2021,12,25,06,46,994.68
2021,12,25,06,47,994.68
2021,12,25,06,48,994.68
2021,12,25,06,49,995.06
2021,12,25,06,50,995.23
2021,12,25,06,51,995.23
2021,12,25,06,52,995.19
2021,12,25,06,53,995.19
2021,12,25,06,54,995.23
2021,12,25,06,55,995.19
2021,12,25,06,56,995.23
2021,12,25,06,57,995.29
